This is the latest recevied weather packets stored in our database for station/object W4MLN-3. If no packets are shown the sender has not sent any weather packets the latest 10 day(s).
| Time | Temp. | Humidity | Pressure | Rain* | Wind** | Luminosity | Snow |
|---|---|---|---|---|---|---|---|
| 1787612403 | 22.22° C | 58% | 1018.8 hPa | 0 mm | - | - | - |
| 1787612103 | 22.22° C | 58% | 1018.8 hPa | 0 mm | - | - | - |
| 1787611803 | 22.78° C | 56% | 1018.8 hPa | 0 mm | - | - | - |
| 1787611504 | 22.78° C | 56% | 1018.8 hPa | 0 mm | - | - | - |
| 1787611203 | 22.78° C | 55% | 1018.7 hPa | 0 mm | - | - | - |
| 1787610603 | 23.33° C | 54% | 1018.6 hPa | 0 mm | - | - | - |
| 1787610303 | 23.33° C | 55% | 1018.6 hPa | 0 mm | - | - | - |
| 1787610024 | 23.33° C | 55% | 1018.7 hPa | 0 mm | - | - | - |
| 1787609703 | 23.33° C | 53% | 1018.8 hPa | 0 mm | - | - | - |
| 1787609403 | 23.89° C | 53% | 1018.7 hPa | 0 mm | - | - | - |
| 1787609103 | 23.89° C | 54% | 1018.7 hPa | 0 mm | - | - | - |
| 1787608803 | 23.89° C | 54% | 1018.7 hPa | 0 mm | - | - | - |
| 1787608504 | 23.89° C | 51% | 1018.7 hPa | 0 mm | - | - | - |
| 1787608219 | 24.44° C | 52% | 1018.8 hPa | 0 mm | - | - | - |
| 1787607903 | 24.44° C | 53% | 1018.6 hPa | 0 mm | - | - | - |
| 1787607604 | 24.44° C | 52% | 1018.6 hPa | 0 mm | - | - | - |
| 1787607303 | 24.44° C | 50% | 1018.7 hPa | 0 mm | - | - | - |
| 1787607007 | 24.44° C | 52% | 1018.7 hPa | 0 mm | - | - | - |
| 1787606703 | 23.89° C | 51% | 1018.7 hPa | 0 mm | - | - | - |
| 1787606411 | 23.89° C | 52% | 1018.7 hPa | 0 mm | - | - | - |
| 1787606103 | 24.44° C | 52% | 1018.8 hPa | 0 mm | - | - | - |
| 1787605810 | 24.44° C | 50% | 1018.8 hPa | 0 mm | - | - | - |
| 1787605503 | 24.44° C | 51% | 1018.8 hPa | 0 mm | - | - | - |
| 1787605204 | 24.44° C | 51% | 1018.8 hPa | 0 mm | - | - | - |
| 1787604903 | 25° C | 51% | 1018.9 hPa | 0 mm | - | - | - |
* Rain latest hour (hover to see other rain measurements)
** Current wind speed in m/s (hover to see current wind gust speed)